Location: Unspecified
(0.0000°N, 0.0000°E)
Time: 18:04:10
(UTC+00:00)

COSMOS 2416 - Pass Details

Date: 18 May 2026
Orbit: 1436 x 1449 km, 82.5° (Epoch: 10 June)

Event Time Altitude Azimuth Distance (km) Brightness Sun altitude
Rises 18:15:52 0° 351° (N) 4,519 9.7 -4.6°
Reaches altitude 10° 18:18:43 10° 348° (NNW) 3,541 9.2 -5.2°
Maximum altitude 18:27:06 68° 267° (W) 1,528 7.1 -7.2°
Drops below altitude 10° 18:35:32 10° 185° (S) 3,546 8.6 -9.2°
Sets 18:38:24 0° 182° (S) 4,525 9.1 -9.9°
